Key West, FL

10:25 AM EST on December 10, 2016 (GMT -0500)
Key West Naval Air Station

Weather History for KNQX - February, 2014

Change the Weather History Date:

Wednesday, February 19, 2014

  Actual Average Record
Temperature  
Mean Temperature 77 °F -  
Max Temperature 81 °F 76 °F 84 °F (1959)
Min Temperature 73 °F 67 °F 51 °F (1958)
Cooling Degree Days 12    
Growing Degree Days 27 (Base 50)    
Moisture  
Dew Point 65 °F    
Average Humidity 70    
Maximum Humidity 85    
Minimum Humidity 58    
Precipitation  
Precipitation 0.00 in - - ()
Sea Level Pressure  
Sea Level Pressure 30.10 in    
Wind  
Wind Speed 13 mph (ESE)    
Max Wind Speed 17 mph    
Max Gust Speed 21 mph    
Visibility 10 miles    
Events      
Averages and records for this station are not official NWS values.
T = Trace of Precipitation, MM = Missing Value Source: NWS Daily Summary

Daily Weather History Graph

Daily Weather History Graph

Search for Another Location

Airport or City:

Trip Planner

Search our weather history database for the weather conditions in past years. The results will help you decide how hot, cold, wet, or windy it might be!

Date:

Astronomy

Feb. 19, 2014 Rise Set
Actual Time 6:57 AM EST 6:23 PM EST
Civil Twilight 6:34 AM EST 6:46 PM EST
Nautical Twilight 6:07 AM EST 7:13 PM EST
Astronomical Twilight 5:41 AM EST 7:40 PM EST
Moon 10:40 PM EST (2/19) 9:34 AM EST (2/19)
Length of Visible Light 12h 12m
Length of Day
11h 26m
Waning Gibbous, 80% of the Moon is Illuminated
Feb 19
Waning Gibbous
Feb 22
Last Quarter
Mar 1
New
Mar 8
First Quarter
Mar 16
Full

Hourly Weather History & Observations

Time (EST) Temp. Heat Index Dew Point Humidity Pressure Visibility Wind Dir Wind Speed Gust Speed Precip Events Conditions
12:53 AM 73.0 °F - 66.0 °F 79% 30.12 in 10.0 mi East 11.5 mph - N/A   Partly Cloudy
1:53 AM 73.0 °F - 66.0 °F 79% 30.11 in 10.0 mi East 10.4 mph - N/A   Partly Cloudy
2:53 AM 73.9 °F - 64.0 °F 71% 30.09 in 10.0 mi ESE 13.8 mph - N/A   Scattered Clouds
3:53 AM 73.9 °F - 63.0 °F 68% 30.08 in 10.0 mi ESE 9.2 mph - N/A   Scattered Clouds
4:53 AM 73.0 °F - 63.0 °F 71% 30.08 in 10.0 mi ESE 13.8 mph - N/A   Partly Cloudy
5:53 AM 73.0 °F - 63.0 °F 71% 30.10 in 10.0 mi ESE 11.5 mph - N/A   Scattered Clouds
6:53 AM 73.0 °F - 63.0 °F 71% 30.12 in 10.0 mi ESE 10.4 mph - N/A   Mostly Cloudy
7:53 AM 75.0 °F - 64.0 °F 69% 30.12 in 10.0 mi ESE 13.8 mph 20.7 mph N/A   Scattered Clouds
8:53 AM 78.1 °F - 64.0 °F 62% 30.13 in 10.0 mi ESE 12.7 mph - N/A   Partly Cloudy
9:53 AM 78.1 °F - 64.9 °F 64% 30.14 in 10.0 mi East 15.0 mph - N/A   Scattered Clouds
10:53 AM 80.1 °F 81.9 °F 64.9 °F 60% 30.14 in 10.0 mi East 12.7 mph - N/A   Mostly Cloudy
11:53 AM 80.1 °F 81.7 °F 64.0 °F 58% 30.14 in 10.0 mi ESE 13.8 mph - N/A   Mostly Cloudy
12:53 PM 80.1 °F 81.7 °F 64.0 °F 58% 30.12 in 10.0 mi East 15.0 mph - N/A   Mostly Cloudy
1:53 PM 81.0 °F 82.7 °F 64.9 °F 58% 30.10 in 10.0 mi East 12.7 mph - N/A   Scattered Clouds
2:53 PM 80.1 °F 82.1 °F 66.0 °F 62% 30.07 in 10.0 mi East 15.0 mph - N/A   Scattered Clouds
3:53 PM 79.0 °F - 64.0 °F 60% 30.07 in 10.0 mi East 17.3 mph - N/A   Scattered Clouds
4:53 PM 78.1 °F - 64.9 °F 64% 30.06 in 10.0 mi East 17.3 mph - N/A   Partly Cloudy
5:53 PM 75.9 °F - 66.0 °F 71% 30.07 in 10.0 mi ESE 12.7 mph - N/A   Partly Cloudy
6:53 PM 73.9 °F - 66.0 °F 76% 30.07 in 10.0 mi East 15.0 mph - N/A   Partly Cloudy
7:53 PM 73.9 °F - 66.9 °F 79% 30.08 in 10.0 mi East 13.8 mph 20.7 mph N/A   Clear
8:53 PM 73.9 °F - 66.9 °F 79% 30.09 in 10.0 mi East 15.0 mph - N/A   Clear
9:53 PM 75.0 °F - 68.0 °F 79% 30.10 in 10.0 mi ESE 12.7 mph - N/A   Clear
10:53 PM 73.9 °F - 68.0 °F 82% 30.11 in 10.0 mi East 11.5 mph - N/A   Clear
11:53 PM 73.9 °F - 69.1 °F 85% 30.10 in 10.0 mi East 8.1 mph - N/A   Clear